Regional Weather Roundup
Issued by NWS Goodland, KS

Home | Current Version | Previous Version | Text Only | Print | Product List | Glossary Off
Versions: 1 2 3 4 5 6 7 8 9 10 11 12 13 14 15 16 17 18 19 20 21 22 23 24 25 26 27 28 29 30 31 32 33 34 35 36 37 38 39 40 41 42 43 44 45 46 47 48 49 50

000
ASUS43 KGLD 200508
RWRGLD

GOODLAND FORECAST AREA HOURLY WEATHER ROUNDUP
NATIONAL WEATHER SERVICE GOODLAND KS
1100 PM MDT SUN OCT 19 2014

...OFFICIAL OBSERVATIONS...

CITY           SKY/WX    TMP DP  RH WIND       PRES   REMARKS
GOODLAND KS    NOT AVBL
HILL CITY KS   NOT AVBL
IMPERIAL NEB   NOT AVBL
MCCOOK NEB     NOT AVBL
AKRON CO       NOT AVBL
BURLINGTON CO  NOT AVBL
LIMON CO       NOT AVBL
$$

...UNOFFICIAL OBSERVATIONS...

CITY           SKY/WX    TMP DP  RH WIND       PRES   REMARKS
COLBY KS       CLEAR     46  46 100 CALM      30.09S
GOVE KS          N/A     49  32  52 MISG        N/A
NORTON KS      CLEAR     46  39  76 CALM      30.04R
SHARON SPRINGS   N/A     49  43  79 CALM        N/A
TRIBUNE KS     FAIR      50  46  87 NW5       30.11R
TRENTON NEB      N/A     55  32  41 CALM        N/A
KIT CARSON CO    N/A     49  40  72 CALM        N/A
YUMA CO          N/A     42  33  71 CALM        N/A
$$



USA.gov is the U.S. government's official web portal to all federal, state and local government web resources and services.